GSAT-N2 (GSAT-20)

Last updated on Sun Apr 12 2026 00:02:57 GMT+0000 (Coordinated Universal Time)

1 62028U 24214A 26101.46287507 -.00000018 00000+0 00000+0 0 9998 2 62028 0.0207 124.0820 0001151 0.6499 309.5437 1.00273109 5225
UTC large
Height (km)
Speed (km/s)
/
Latitude / Longitude
Inclination (degrees)
Orbital Period (minutes)
Azimuth
Elevation
Range (km)
Doppler Factor

Next 0 passes for location: London (51.5072 / 0.1276)

Sorry there are no passes over London.
GSAT-N2 (GSAT-20)